• Join FlightAware (Why Join?)
  • Login
  • US Flag 
11:02PM EST


 

Airport Tracker/Info


-or-


 

Live Flight TrackerFlight Track Log ✈ AWE46 ✈ 03-May-2013 ✈ KSFO - KPHX

Flight Track Log - Related Links

Times and Time Zones

All times are in EDT time to prevent confusion due to time zone crossing. See the AWE46 flight status page for this flight to view local times or setup timezone preferences in your user account.

Time Position Orientation Groundspeed Altitude Reporting Facility
EDT Latitude Longitude Course Direction KTS MPH feet Rate Location/Type
03:11PM 37.6500 -122.3667 135° Southeast 159 183 1,900  Level Northern Cal TRACON
03:12PM 37.7000 -122.3667 360° North 225 259 3,300 1,800 Climbing Northern Cal TRACON
03:13PM 37.4403 -122.3874 113° Southeast  Level FlightAware Approximate
03:13PM 37.7000 -122.4500 270° West 281 323 5,500  Level Northern Cal TRACON
03:14PM 37.3763 -122.2583 136° Southeast  Level FlightAware Approximate
03:14PM 37.6333 -122.4500 180° South 295 339 8,600  Level Northern Cal TRACON
03:14PM 37.6100 -122.4464 173° South 293 337 9,100 1,556 Climbing Oakland Center
03:15PM 37.2910 -122.1486 122° Southeast  Level FlightAware Approximate
03:15PM 37.5250 -122.4161 164° South 316 364 10,700  Level Oakland Center
03:16PM 37.2084 -122.0354 135° Southeast  Level FlightAware Approximate
03:16PM 37.4150 -122.3528 155° Southeast 373 429 13,400  Level Oakland Center
03:17PM 37.3478 -122.2497 129° Southeast 383 441 15,500 2,000 Climbing Oakland Center
03:18PM 37.2789 -122.1425 129° Southeast 393 452 17,500 2,049 Climbing Oakland Center
03:19PM 37.2064 -122.0303 129° Southeast 410 472 19,700 1,902 Climbing Oakland Center
03:20PM 37.1325 -121.9167 129° Southeast 419 482 21,400 1,610 Climbing Oakland Center
03:21PM 37.0553 -121.8003 130° Southeast 431 496 23,000 1,512 Climbing Oakland Center
03:23PM 36.9775 -121.6817 129° Southeast 440 506 24,500 1,415 Climbing Oakland Center
03:24PM 36.8969 -121.5606 130° Southeast 451 519 25,900 1,366 Climbing Oakland Center
03:25PM 36.8014 -121.4178 130° Southeast 459 528 27,300 1,317 Climbing Oakland Center
03:26PM 36.7183 -121.2906 129° Southeast 470 541 28,600 1,065 Climbing Oakland Center
03:27PM 36.6339 -121.1633 130° Southeast 475 547 29,500 976 Climbing Oakland Center
03:28PM 36.5461 -121.0344 130° Southeast 481 554 30,600 1,220 Climbing Oakland Center
03:29PM 36.4589 -120.9069 130° Southeast 483 556 32,000 1,268 Climbing Oakland Center
03:30PM 36.3736 -120.7814 130° Southeast 476 548 33,200 1,268 Climbing Oakland Center
03:31PM 36.2719 -120.6306 130° Southeast 474 545 34,600 1,113 Climbing Oakland Center
03:32PM 36.1861 -120.5086 131° Southeast 468 539 35,500 878 Climbing Oakland Center
03:33PM 36.1008 -120.3797 129° Southeast 478 550 36,400 732 Climbing Oakland Center
03:34PM 36.0150 -120.2569 131° Southeast 469 540 37,000 244 Climbing Oakland Center
03:35PM 35.9314 -120.1389 131° Southeast 456 525 36,900  Descending Oakland Center
03:36PM 35.8439 -120.0117 130° Southeast 473 544 37,000  Climbing Oakland Center
03:37PM 35.7550 -119.8850 131° Southeast 483 556 36,900  Descending Oakland Center
03:38PM 35.6394 -119.8006 149° Southeast 476 548 37,000 48 Climbing Oakland Center
03:39PM 35.5222 -119.7236 152° Southeast 476 548 37,000  Level Oakland Center
03:40PM 35.4100 -119.6378 148° Southeast 475 547 37,000 -49 Level Oakland Center
03:41PM 35.3111 -119.4847 128° Southeast 479 551 36,900  Descending Oakland Center
03:42PM 35.2350 -119.3539 125° Southeast 476 548 37,000 46 Climbing Los Angeles Center
03:43PM 35.1572 -119.2233 126° Southeast 474 545 37,000  Level Los Angeles Center
03:44PM 35.0611 -119.0669 127° Southeast 479 551 37,000  Level Los Angeles Center
03:45PM 34.9828 -118.9364 126° Southeast 477 549 37,000  Level Los Angeles Center
03:46PM 34.9042 -118.8067 126° Southeast 477 549 37,000  Level Los Angeles Center
03:47PM 34.8292 -118.6850 127° Southeast 474 545 37,000  Level Los Angeles Center
03:48PM 34.7333 -118.5278 127° Southeast 480 552 37,000  Level Los Angeles Center
03:49PM 34.6650 -118.4181 127° Southeast 480 552 37,000  Level Los Angeles Center
03:50PM 34.5742 -118.2669 126° Southeast 480 552 37,000  Level Los Angeles Center
03:51PM 34.4906 -118.1347 127° Southeast 480 552 37,000  Level Los Angeles Center
03:52PM 34.4222 -117.9961 121° Southeast 484 557 37,000  Level Los Angeles Center
03:54PM 34.3789 -117.8408 109° East 496 571 37,000  Level Los Angeles Center
03:55PM 34.3411 -117.6800 106° East 498 573 37,000  Level Los Angeles Center
03:56PM 34.2944 -117.4853 106° East 499 574 37,000  Level Los Angeles Center
03:57PM 34.2547 -117.3228 106° East 501 577 37,000  Level Los Angeles Center
03:58PM 34.2136 -117.1647 107° East 508 585 37,000  Level Los Angeles Center
03:59PM 34.1731 -117.0047 107° East 506 582 37,000  Level Los Angeles Center
04:00PM 34.1347 -116.8450 106° East 502 578 37,000  Level Los Angeles Center
04:01PM 34.0919 -116.6703 106° East 510 587 37,000  Level Los Angeles Center
04:02PM 34.0514 -116.5081 107° East 508 585 37,000  Level Los Angeles Center
04:03PM 34.0008 -116.3114 107° East 511 588 37,000  Level Los Angeles Center
04:04PM 33.9600 -116.1472 107° East 511 588 37,000  Level Los Angeles Center
04:05PM 33.9178 -115.9842 107° East 510 587 37,000  Level Los Angeles Center
04:06PM 33.8744 -115.8194 108° East 513 590 37,000 -48 Level Los Angeles Center
04:07PM 33.8333 -115.6569 107° East 508 585 36,900 -48 Descending Los Angeles Center
04:08PM 33.7889 -115.4906 108° East 521 600 36,900 48 Level Los Angeles Center
04:09PM 33.7458 -115.3275 108° East 514 592 37,000 48 Climbing Los Angeles Center
04:10PM 33.6936 -115.1289 107° East 519 597 37,000 -48 Level Los Angeles Center
04:11PM 33.6569 -114.9619 105° East 517 595 36,900 -1,065 Descending Los Angeles Center
04:12PM 33.6219 -114.7947 104° East 519 597 34,800 -2,371 Descending Los Angeles Center
04:13PM 33.5844 -114.6264 105° East 523 602 32,000 -2,667 Descending Los Angeles Center
04:13PM 33.5714 -114.5681 105° East 520 598 31,200 -2,148 Descending Albuquerque Center
04:15PM 33.5375 -114.4061 104° East 507 583 29,100 -1,951 Descending Albuquerque Center
04:16PM 33.5017 -114.2536 106° East 484 557 27,200 -1,854 Descending Albuquerque Center
04:17PM 33.4692 -114.1058 105° East 467 537 25,300 -1,500 Descending Albuquerque Center
04:18PM 33.4389 -113.9656 104° East 445 512 24,100 -1,258 Descending Albuquerque Center
04:19PM 33.4125 -113.8275 103° East 432 497 22,700 -1,463 Descending Albuquerque Center
04:20PM 33.3803 -113.6658 103° East 420 483 21,100 -1,415 Descending Albuquerque Center
04:21PM 33.3536 -113.5386 104° East 405 466 19,800 -1,306 Descending Albuquerque Center
04:22PM 33.3269 -113.4106 104° East 397 457 18,400 -1,317 Descending Albuquerque Center
04:23PM 33.3011 -113.2847 104° East 394 453 17,100 -1,268 Descending Albuquerque Center
04:24PM 33.2758 -113.1617 104° East 387 445 15,800 -1,210 Descending Albuquerque Center
04:25PM 33.2758 -113.0425 90° East 369 425 14,600 -1,317 Descending Albuquerque Center
04:26PM 33.2778 -112.9286 89° East 355 409 13,100 -1,317 Descending Albuquerque Center
04:27PM 33.2828 -112.8186 87° East 333 383 11,900 -1,355 Descending Albuquerque Center
04:28PM 33.3208 -112.7136 67° East 283 326 10,300 -1,659 Descending Albuquerque Center
04:29PM 33.3528 -112.6294 66° East 278 320 8,500 -1,122 Descending Albuquerque Center
04:30PM 33.3861 -112.5425 65° Northeast 264 304 8,000 -242 Descending Albuquerque Center
04:31PM 33.4125 -112.4719 66° East 236 272 8,000 -339 Level Albuquerque Center
04:32PM 33.4397 -112.4019 65° Northeast 232 267 7,300 -968 Descending Albuquerque Center
04:33PM 33.4403 -112.3197 90° East 229 264 6,000 -878 Descending Albuquerque Center
04:34PM 33.4408 -112.2511 89° East 210 242 5,500 -878 Descending Albuquerque Center
04:35PM 33.4406 -112.1942 90° East 176 203 4,200 -1,258 Descending Albuquerque Center